Temperature
10 9 8 8 8 8 8 8 8 8 8 7 7 7 7 6 6 6 6 6 6 6 6 6 6 6 6 6 6 7 7 7 8 9 10 10 11 11 12 12 13 14 13
10 9 8 8 8 8 8 8 8 8 7 7 7 6 6 6 6 5 5 5 5 5 5 5 5 5 5 6 6 6 6 7 8 9 9 9 10 10 10 11 11 12 12
10 9 8 8 8 8 8 8 8 7 7 7 6 6 6 5 5 5 5 4 4 4 4 4 5 5 5 5 5 5 5 6 8 8 8 9 9 9 9 9 10 10 11
9 9 9 8 8 8 8 8 7 7 7 6 6 6 5 5 5 4 4 4 4 3 3 3 4 4 4 4 4 4 5 6 8 8 8 8 8 8 7 7 8 8 9
9 9 9 8 8 8 8 8 7 7 6 6 6 5 5 5 4 4 4 3 3 3 3 3 3 3 3 3 4 4 5 6 8 8 7 7 7 7 6 5 6 6 7
9 9 8 8 8 8 8 8 7 7 6 6 6 6 5 5 4 4 3 3 3 2 2 2 2 3 3 3 4 4 5 6 7 7 7 7 7 6 4 4 4 4 5
9 9 8 8 8 8 8 7 7 7 6 6 6 6 5 5 4 4 3 3 2 2 2 2 3 3 3 4 3 3 4 6 6 6 6 6 6 5 3 3 3 3 4
9 9 8 8 8 8 8 7 7 7 6 6 6 6 6 5 4 4 3 3 3 3 3 3 3 3 4 4 4 3 4 4 4 5 5 5 5 4 3 2 2 2 2
8 8 8 8 8 8 8 7 7 7 6 6 6 6 5 5 4 4 4 3 3 3 3 3 3 4 4 4 3 3 3 3 3 3 3 3 3 3 2 1 1 1 1
8 8 8 8 8 8 7 7 7 7 6 6 6 5 5 4 4 4 4 4 3 3 3 3 3 3 3 3 3 2 2 2 2 2 2 2 2 1 1 1 1 0 0
8 8 8 7 7 7 7 7 7 6 6 6 5 5 5 4 4 4 4 3 3 3 3 3 3 3 2 2 2 1 1 1 1 1 1 1 0 -1 -1 -1 -1 -1 -1
10 9 8 8 7 7 7 7 7 6 6 6 5 5 5 4 4 4 3 3 3 3 3 2 2 2 2 1 1 0 -0 -0 -1 -1 -1 -1 -2 -2 -2 -2 -2 -2 -2
11 9 9 8 8 7 7 7 6 6 6 6 5 5 4 4 4 3 3 3 3 2 2 2 1 1 1 0 -0 -1 -1 -2 -3 -3 -3 -3 -3 -4 -4 -4 -4 -3 -3
11 10 9 8 8 7 7 7 6 6 6 6 5 5 4 4 4 3 3 3 2 2 2 1 1 0 -0 -1 -2 -2 -3 -4 -4 -4 -5 -5 -5 -5 -5 -5 -5 -5 -4
11 10 9 8 8 7 7 7 6 6 6 5 5 5 4 4 3 3 2 2 2 1 1 1 -0 -1 -2 -2 -3 -4 -4 -5 -5 -5 -6 -6 -6 -6 -6 -6 -6 -6 -5
12 11 9 8 8 7 7 7 6 6 5 5 5 5 4 4 3 2 2 2 1 1 0 -0 -1 -2 -3 -4 -4 -5 -5 -5 -6 -6 -6 -6 -6 -7 -7 -7 -7 -7 -6
12 11 10 9 8 7 7 6 6 6 5 5 5 4 4 3 3 2 2 1 1 -0 -1 -1 -2 -3 -4 -5 -5 -5 -5 -5 -6 -6 -6 -7 -7 -7 -7 -8 -8 -8 -7
12 11 10 9 8 8 7 7 6 5 5 5 4 4 4 3 2 2 1 1 0 -1 -1 -2 -3 -3 -4 -5 -5 -5 -5 -5 -6 -6 -6 -7 -7 -8 -8 -8 -8 -8 -8
12 11 10 9 9 8 7 7 6 5 5 5 4 4 4 3 2 2 1 0 -0 -1 -2 -3 -3 -4 -5 -6 -6 -5 -5 -5 -5 -6 -7 -7 -8 -8 -8 -8 -9 -9 -9
12 11 11 10 9 8 7 6 5 5 5 5 4 4 3 3 2 1 1 0 -1 -1 -2 -3 -4 -4 -5 -6 -7 -6 -5 -5 -5 -6 -7 -7 -8 -8 -8 -9 -9 -9 -9
13 12 11 10 10 8 8 7 6 6 6 5 4 4 3 3 2 1 1 0 -1 -1 -2 -3 -4 -4 -4 -6 -7 -7 -6 -5 -6 -6 -7 -7 -8 -8 -9 -9 -9 -9 -9
14 13 13 12 11 10 9 8 7 6 5 5 4 3 3 3 2 1 1 0 -1 -2 -2 -3 -4 -5 -5 -6 -8 -9 -9 -8 -8 -8 -7 -8 -8 -8 -9 -9 -9 -9 -10
15 15 15 14 13 12 10 8 6 5 5 5 4 4 4 3 2 1 1 0 -1 -2 -2 -3 -4 -5 -6 -6 -7 -9 -10 -10 -11 -9 -8 -8 -8 -9 -9 -9 -9 -10 -10
17 17 16 15 14 13 11 9 8 7 7 7 6 4 3 2 2 1 1 -0 -1 -2 -2 -3 -4 -5 -6 -6 -7 -8 -9 -10 -11 -11 -10 -9 -9 -9 -9 -9 -10 -10 -10
18 17 16 15 14 13 12 11 9 8 7 6 5 4 3 3 2 1 0 -0 -1 -2 -2 -3 -4 -5 -6 -7 -8 -8 -9 -10 -10 -12 -12 -10 -10 -10 -10 -10 -10 -10 -10
18 18 17 16 15 14 13 12 10 9 8 6 5 4 3 3 2 1 0 -0 -1 -2 -2 -3 -4 -5 -6 -7 -7 -8 -9 -10 -10 -11 -12 -11 -11 -10 -10 -11 -11 -10 -10
Wind_Speed
4 5 6 8 8 8 9 10 11 12 13 14 15 16 16 18 19 20 21 21 22 23 24 25 26 26 27 28 28 29 29 30 30 29 30 30 30 29 30 30 29 25 29
8 6 9 9 9 8 8 9 10 11 12 13 14 15 16 17 17 19 19 20 21 22 23 24 25 26 27 27 28 28 28 29 29 29 28 28 29 28 29 29 29 26 28
9 8 10 10 9 9 8 8 9 10 11 12 13 14 15 16 16 18 18 19 20 21 22 23 24 25 26 26 27 27 27 28 29 28 26 24 25 26 28 28 28 28 28
11 10 9 11 10 9 8 8 8 9 10 11 12 13 14 14 15 16 17 18 19 20 21 22 23 24 24 25 26 26 27 27 28 27 23 23 23 24 27 27 28 28 28
11 11 9 12 10 9 8 8 7 8 9 10 11 12 13 14 15 15 16 17 18 18 19 20 21 22 23 24 25 26 26 26 26 24 22 22 22 24 27 27 27 27 28
11 10 9 12 11 9 8 7 7 7 8 9 10 11 12 13 14 14 15 15 16 17 18 19 20 21 22 23 24 25 26 26 24 21 21 21 21 25 27 27 27 27 27
10 10 8 13 11 10 8 7 7 7 7 8 10 11 11 12 12 13 14 14 15 16 17 18 19 20 21 22 23 24 25 25 24 22 21 21 21 27 28 27 27 27 27
13 10 6 12 12 10 8 7 7 6 7 8 9 10 10 11 11 12 13 13 14 15 16 17 19 20 20 21 22 23 23 24 23 22 22 22 24 28 28 28 28 28 28
13 11 8 8 10 10 9 8 7 7 7 7 8 9 10 10 10 11 12 12 13 14 15 16 18 19 19 20 21 21 22 22 22 20 20 20 26 28 28 28 28 28 28
9 11 10 9 10 9 8 8 8 8 7 7 7 8 9 9 10 10 11 12 12 13 14 15 17 18 18 19 20 20 20 20 21 19 18 20 26 28 28 29 29 29 29
7 8 11 11 12 11 10 8 9 8 8 8 7 8 8 9 8 9 10 11 11 12 13 14 15 17 17 18 18 19 18 18 19 18 17 22 26 27 28 29 29 29 29
11 8 12 14 14 13 11 10 10 10 9 9 9 8 8 8 7 7 8 9 10 11 12 13 14 16 16 16 17 17 17 19 18 17 17 24 25 26 27 28 28 29 30
11 10 11 15 16 16 14 13 12 11 11 10 10 9 8 7 5 5 6 7 9 9 11 13 14 15 16 16 16 17 17 17 17 17 19 22 24 26 27 27 28 29 30
10 11 10 17 17 17 16 14 14 13 13 12 12 11 10 8 5 4 3 4 6 8 9 11 12 14 14 15 16 16 17 17 17 17 18 21 24 25 26 27 28 29 30
14 14 12 17 17 17 16 15 14 15 15 14 14 14 12 10 8 5 2 1 3 5 6 8 9 11 12 13 14 14 16 18 18 18 17 21 22 23 24 26 28 29 30
18 17 14 15 19 18 16 15 15 17 17 16 15 16 15 12 10 7 5 2 2 3 4 6 8 9 10 11 13 15 16 18 17 18 19 19 20 22 23 25 27 29 31
17 16 16 16 19 18 17 17 17 18 18 17 17 17 16 15 12 10 7 6 6 5 6 7 9 9 8 9 10 14 15 16 17 18 19 18 18 19 22 25 27 29 30
14 16 17 16 17 18 18 17 17 18 18 18 18 18 18 17 15 12 9 9 9 8 7 7 7 4 5 5 6 10 13 15 17 18 18 17 17 17 19 24 27 28 30
17 16 18 17 16 17 18 17 17 17 17 18 18 18 19 19 17 15 12 12 10 9 8 8 5 4 5 6 7 7 9 11 15 17 15 16 17 17 18 21 25 27 29
15 16 17 18 15 13 13 10 9 10 13 16 18 19 20 19 19 17 14 13 11 8 6 6 5 5 5 6 8 9 8 11 13 12 13 14 15 17 19 20 21 23 27
15 17 18 19 16 13 8 7 6 7 6 7 16 19 20 20 19 18 13 12 11 7 6 6 4 5 5 4 4 6 8 9 9 7 10 11 13 16 18 18 19 20 22
19 19 19 21 19 18 14 9 5 5 5 7 13 17 20 20 20 17 15 12 11 7 7 6 6 3 4 3 3 4 5 4 4 8 7 8 10 14 14 18 19 21 22
20 23 21 22 21 19 14 8 4 3 2 5 7 9 17 20 20 19 17 15 12 9 7 7 7 6 5 4 4 3 3 5 6 5 7 8 8 7 11 16 19 20 22
23 19 20 20 20 18 17 16 15 13 13 12 8 9 12 19 19 19 18 16 14 11 7 8 7 6 6 6 4 6 7 6 5 7 5 5 8 10 10 14 17 20 23
17 16 17 17 19 19 20 21 20 17 13 6 6 9 10 12 17 18 18 16 13 11 10 9 7 7 6 7 6 5 7 7 8 8 14 13 9 8 9 9 13 18 22
12 14 15 18 20 19 21 21 22 21 15 10 10 11 10 8 9 15 17 16 15 12 11 10 9 9 8 9 8 7 6 7 7 8 11 17 18 12 9 9 10 15 20
Wind_Direction
199 187 155 127 110 93 78 67 59 52 47 42 40 38 37 36 34 32 30 29 28 28 28 28 28 28 28 28 27 27 29 30 28 23 17 12 8 7 8 8 6 2 1
162 163 147 132 117 101 86 74 64 57 50 45 42 40 38 37 35 32 30 29 28 28 27 27 28 28 27 26 25 25 27 29 25 22 17 10 4 4 6 6 4 1 359
138 132 137 135 124 111 97 83 72 62 55 49 45 42 39 37 35 32 30 29 29 28 27 27 26 26 26 25 24 24 25 29 23 20 16 8 0 1 3 3 1 359 357
137 128 133 140 131 120 107 92 79 69 60 53 48 44 40 38 36 32 30 29 28 27 27 26 26 25 24 22 22 22 24 26 22 19 12 4 357 357 1 1 359 356 354
142 138 150 144 138 129 117 102 87 75 66 58 52 47 42 39 38 33 30 29 27 27 26 26 26 25 23 21 20 20 21 23 21 17 9 1 353 354 359 358 357 354 351
149 149 165 150 145 137 127 114 98 84 73 64 58 51 44 41 40 34 29 29 27 26 25 25 25 24 22 20 19 19 19 19 20 12 6 359 347 351 355 355 353 351 348
157 158 172 158 153 146 138 128 112 96 83 72 65 57 48 43 41 35 30 30 27 26 25 25 24 23 22 19 18 18 17 16 15 6 1 354 343 351 351 351 350 347 345
159 159 163 169 162 157 150 141 127 111 98 84 75 66 54 47 42 36 30 30 28 27 25 24 23 23 22 19 17 16 15 15 10 3 356 348 344 347 347 347 345 343 341
163 160 155 145 157 162 160 155 143 129 115 101 89 79 65 55 46 39 31 30 29 28 25 24 23 21 21 17 15 13 13 11 7 360 353 342 341 343 342 342 340 339 337
171 170 164 153 150 149 151 160 153 142 130 117 105 95 80 67 54 42 31 30 29 28 25 24 23 21 20 15 11 9 9 6 1 354 347 337 338 338 337 337 336 335 332
191 189 178 170 167 165 160 159 156 149 141 130 122 113 102 91 73 49 35 33 30 29 25 23 22 20 19 14 8 5 4 358 354 347 340 334 334 334 332 332 331 330 329
196 198 192 183 178 175 170 165 158 152 149 147 145 138 125 109 92 67 46 37 33 31 26 23 21 20 16 10 5 1 355 350 346 340 333 330 329 329 328 327 326 325 324
194 196 194 192 186 182 176 172 171 168 166 165 165 161 150 136 114 90 64 47 39 31 28 20 19 14 8 2 354 348 342 339 332 328 324 325 325 324 324 323 322 321 320
191 199 193 194 190 189 185 183 182 180 180 180 181 178 170 162 154 133 88 48 33 23 17 12 7 0 355 348 340 330 324 320 315 314 315 320 321 321 320 319 319 318 317
199 201 197 193 193 191 189 188 191 191 191 191 190 190 187 179 176 171 155 60 18 6 -0 353 347 340 332 324 318 309 304 303 302 301 302 312 316 317 317 317 316 315 314
204 203 198 196 197 192 192 194 195 197 197 196 197 198 197 193 187 184 188 205 276 306 310 310 307 303 297 295 293 291 290 291 289 291 295 301 309 314 315 315 314 312 311
204 201 199 199 198 196 197 199 200 200 199 199 202 203 202 201 197 194 197 215 239 256 268 277 282 281 275 276 276 281 282 279 281 285 291 293 295 306 312 314 313 310 309
200 200 201 202 198 200 200 200 199 201 201 203 205 205 206 206 204 200 203 220 236 243 250 258 263 262 261 265 269 275 275 274 276 282 285 286 290 295 302 310 311 310 309
202 200 200 202 198 200 201 199 199 201 204 206 206 206 208 208 208 204 209 223 232 233 239 249 251 232 257 269 272 268 263 264 271 279 279 282 284 288 293 303 308 310 308
203 202 203 204 202 193 192 190 194 203 210 209 206 207 208 208 208 207 212 223 227 224 231 236 246 246 243 260 279 280 269 266 267 265 268 275 280 287 294 296 298 302 305
202 203 205 204 200 189 183 188 191 207 206 206 211 209 207 208 207 205 209 217 219 216 224 225 234 259 260 247 272 281 271 258 251 252 255 264 272 281 286 290 293 294 297
206 207 206 207 201 198 199 187 178 177 194 206 208 208 208 207 206 206 208 210 214 216 225 226 217 237 260 254 260 306 311 289 250 248 247 257 266 272 279 288 290 291 292
210 209 208 207 204 201 192 172 154 141 152 182 201 207 207 205 205 205 206 209 212 210 221 224 215 219 246 251 206 226 282 293 306 256 240 254 256 258 270 279 284 287 291
215 210 209 205 204 199 189 191 191 199 207 204 195 197 198 202 203 206 208 209 212 214 217 225 221 215 224 251 237 221 224 238 283 301 277 254 253 266 266 279 284 286 287
212 205 206 203 204 199 197 201 203 212 213 185 180 187 195 200 203 205 208 209 212 216 219 222 223 221 221 235 238 231 238 245 237 261 291 296 283 260 263 264 273 279 283
203 201 199 202 207 201 201 205 208 212 203 187 190 194 198 199 203 207 209 210 213 216 220 224 226 227 231 235 242 239 237 243 249 250 273 290 294 287 265 262 268 274 277
Height
1589 1592 1593 1594 1595 1595 1594 1594 1593 1592 1591 1590 1589 1588 1587 1585 1583 1582 1580 1578 1577 1575 1574 1572 1570 1569 1567 1565 1564 1562 1560 1558 1556 1555 1556 1556 1556 1555 1555 1554 1554 1554 1554
1588 1590 1592 1593 1594 1594 1594 1593 1593 1592 1591 1590 1589 1588 1587 1585 1584 1582 1580 1578 1577 1575 1573 1572 1570 1568 1566 1565 1563 1561 1559 1557 1555 1555 1554 1554 1554 1553 1553 1553 1552 1552 1552
1587 1589 1591 1592 1593 1593 1593 1593 1592 1592 1591 1590 1589 1587 1586 1585 1583 1581 1580 1578 1577 1575 1573 1571 1569 1568 1565 1564 1562 1560 1558 1554 1554 1554 1553 1552 1552 1551 1551 1551 1550 1550 1550
1586 1588 1590 1591 1592 1592 1592 1592 1592 1591 1590 1589 1588 1587 1586 1584 1583 1581 1580 1578 1576 1575 1573 1571 1569 1567 1565 1563 1561 1559 1556 1552 1552 1551 1551 1550 1550 1549 1549 1548 1548 1547 1547
1585 1587 1589 1590 1591 1591 1591 1591 1591 1590 1589 1588 1587 1586 1584 1583 1582 1580 1579 1577 1576 1574 1573 1571 1569 1566 1564 1562 1560 1558 1556 1552 1551 1550 1549 1548 1547 1547 1547 1546 1545 1545 1544
1583 1585 1587 1588 1589 1590 1590 1590 1590 1589 1589 1587 1586 1585 1583 1582 1581 1579 1578 1576 1575 1573 1572 1570 1568 1565 1563 1561 1560 1558 1555 1553 1552 1550 1548 1546 1545 1544 1544 1543 1542 1542 1541
1582 1584 1585 1587 1588 1589 1589 1589 1589 1588 1587 1586 1585 1583 1582 1581 1579 1578 1576 1575 1573 1572 1570 1568 1566 1564 1562 1561 1559 1557 1555 1553 1552 1550 1549 1546 1544 1543 1542 1541 1540 1538 1538
1581 1582 1584 1585 1586 1587 1588 1588 1587 1587 1586 1584 1583 1582 1581 1579 1578 1576 1575 1573 1572 1570 1569 1567 1565 1563 1561 1560 1558 1556 1554 1552 1551 1550 1548 1546 1544 1542 1540 1539 1537 1535 1534
1579 1581 1582 1583 1585 1585 1586 1586 1585 1585 1584 1583 1581 1580 1579 1578 1576 1575 1573 1572 1570 1569 1567 1566 1564 1562 1561 1559 1557 1555 1553 1551 1549 1548 1546 1544 1542 1540 1538 1536 1534 1532 1530
1576 1578 1580 1581 1582 1583 1584 1584 1584 1583 1582 1581 1580 1578 1577 1576 1575 1573 1572 1570 1569 1567 1566 1564 1563 1561 1560 1558 1556 1554 1552 1550 1548 1546 1544 1542 1540 1538 1536 1533 1531 1529 1526
1572 1574 1576 1578 1580 1581 1581 1582 1581 1581 1580 1579 1578 1576 1575 1574 1573 1572 1570 1569 1567 1566 1564 1563 1561 1559 1558 1556 1554 1552 1550 1548 1545 1543 1541 1539 1536 1534 1532 1530 1527 1525 1523
1567 1570 1573 1575 1577 1578 1579 1579 1579 1579 1578 1577 1576 1574 1573 1572 1571 1570 1568 1567 1565 1564 1562 1560 1559 1557 1555 1553 1551 1549 1547 1545 1542 1540 1537 1535 1532 1530 1528 1526 1523 1521 1518
1565 1567 1569 1571 1573 1574 1575 1576 1576 1576 1575 1574 1573 1572 1571 1570 1568 1567 1566 1564 1563 1562 1560 1558 1556 1554 1552 1550 1548 1546 1543 1540 1537 1535 1532 1529 1527 1525 1523 1521 1518 1516 1514
1560 1563 1565 1567 1569 1570 1571 1572 1572 1572 1572 1572 1571 1569 1568 1567 1566 1564 1563 1562 1560 1559 1557 1555 1553 1550 1548 1546 1543 1541 1538 1535 1532 1529 1526 1524 1521 1519 1517 1515 1513 1511 1508
1556 1558 1560 1563 1564 1566 1567 1568 1568 1569 1568 1568 1567 1566 1565 1564 1562 1561 1560 1558 1557 1555 1553 1551 1548 1546 1543 1541 1538 1535 1532 1529 1526 1523 1520 1517 1515 1512 1511 1509 1507 1505 1503
1550 1552 1555 1557 1559 1561 1562 1563 1564 1564 1564 1564 1563 1562 1561 1560 1559 1557 1556 1554 1552 1550 1548 1545 1543 1540 1537 1535 1532 1529 1526 1524 1521 1518 1514 1511 1509 1506 1504 1503 1501 1499 1496
1545 1547 1549 1551 1554 1555 1556 1558 1559 1559 1559 1559 1559 1558 1557 1556 1555 1553 1552 1550 1547 1545 1542 1540 1537 1534 1531 1529 1526 1524 1521 1518 1515 1512 1509 1505 1503 1501 1498 1496 1494 1492 1490
1539 1541 1543 1546 1547 1548 1550 1552 1553 1554 1554 1554 1554 1553 1552 1551 1550 1548 1547 1545 1542 1540 1537 1535 1533 1530 1527 1524 1521 1519 1516 1512 1509 1506 1503 1500 1498 1495 1493 1490 1488 1486 1483
1533 1535 1537 1539 1540 1542 1545 1546 1547 1548 1548 1548 1548 1547 1547 1546 1544 1543 1542 1540 1538 1535 1533 1530 1527 1525 1521 1518 1515 1512 1510 1506 1504 1501 1498 1495 1493 1490 1487 1484 1481 1478 1475
1527 1529 1530 1532 1533 1536 1538 1539 1540 1540 1540 1541 1541 1541 1541 1540 1539 1538 1536 1535 1532 1530 1528 1525 1523 1520 1517 1513 1509 1506 1503 1500 1497 1495 1492 1490 1487 1485 1481 1478 1475 1471 1468
1519 1520 1522 1524 1525 1528 1529 1529 1530 1531 1533 1534 1535 1535 1535 1534 1533 1532 1531 1529 1527 1525 1523 1521 1518 1516 1513 1509 1503 1497 1494 1492 1490 1487 1485 1483 1481 1479 1476 1472 1468 1465 1460
1511 1512 1514 1515 1517 1519 1520 1522 1524 1525 1526 1528 1528 1528 1528 1527 1526 1525 1525 1523 1522 1520 1518 1516 1513 1510 1508 1505 1500 1493 1486 1483 1480 1480 1478 1476 1474 1472 1469 1466 1462 1458 1453
1503 1504 1506 1507 1509 1511 1513 1515 1516 1516 1516 1518 1519 1520 1521 1520 1519 1519 1518 1517 1516 1514 1512 1511 1508 1505 1503 1501 1498 1495 1488 1480 1475 1469 1469 1468 1466 1464 1461 1458 1454 1450 1446
1495 1498 1499 1500 1502 1503 1504 1504 1504 1505 1505 1507 1511 1513 1513 1513 1512 1512 1511 1510 1509 1508 1506 1505 1503 1500 1497 1495 1493 1491 1488 1483 1476 1465 1461 1460 1458 1455 1453 1450 1446 1442 1438
1490 1491 1492 1493 1494 1494 1495 1495 1496 1496 1497 1500 1503 1504 1505 1505 1505 1504 1504 1503 1502 1501 1500 1498 1497 1494 1492 1489 1487 1484 1482 1479 1475 1469 1457 1450 1449 1446 1444 1441 1437 1433 1428
1483 1483 1484 1485 1485 1485 1485 1485 1486 1486 1488 1490 1492 1495 1496 1497 1497 1497 1496 1496 1495 1494 1493 1492 1490 1488 1486 1483 1481 1478 1476 1473 1469 1465 1456 1446 1439 1435 1434 1431 1428 1424 1420